Year,Month,Day,Hour,Minute,Value (Times are PST for temperature in C)
2009,07,29,00,00,23.30
2009,07,29,00,01,23.30
2009,07,29,00,02,23.30
2009,07,29,00,03,23.30
2009,07,29,00,04,23.30
2009,07,29,00,05,23.30
2009,07,29,00,06,23.30
2009,07,29,00,07,23.30
2009,07,29,00,08,23.30
2009,07,29,00,09,23.30
2009,07,29,00,10,23.30
2009,07,29,00,11,23.30
2009,07,29,00,12,23.30
2009,07,29,00,13,23.30
2009,07,29,00,14,23.30
2009,07,29,00,15,23.40
2009,07,29,00,16,23.40
2009,07,29,00,17,23.40
2009,07,29,00,18,23.40
2009,07,29,00,19,23.40
2009,07,29,00,20,23.40
2009,07,29,00,21,23.50
2009,07,29,00,22,23.60
2009,07,29,00,23,23.60
2009,07,29,00,24,23.60
2009,07,29,00,25,23.60
2009,07,29,00,26,23.60
2009,07,29,00,27,23.60
2009,07,29,00,28,23.60
2009,07,29,00,29,23.60
2009,07,29,00,30,23.60
2009,07,29,00,31,23.60
2009,07,29,00,32,23.60
2009,07,29,00,33,23.60
2009,07,29,00,34,23.60
2009,07,29,00,35,23.60
2009,07,29,00,36,23.60
2009,07,29,00,37,23.50
2009,07,29,00,38,23.40
2009,07,29,00,39,23.30
2009,07,29,00,40,23.30
2009,07,29,00,41,23.30
2009,07,29,00,42,23.30
2009,07,29,00,43,23.30
2009,07,29,00,44,23.20
2009,07,29,00,45,23.20
2009,07,29,00,46,23.20
2009,07,29,00,47,23.10
2009,07,29,00,48,23.10
2009,07,29,00,49,23.10
2009,07,29,00,50,23.00
2009,07,29,00,51,22.90
2009,07,29,00,52,22.90
2009,07,29,00,53,22.90
2009,07,29,00,54,22.90
2009,07,29,00,55,22.80
2009,07,29,00,56,22.80
2009,07,29,00,57,22.80
2009,07,29,00,58,22.80
2009,07,29,00,59,22.80
2009,07,29,01,00,22.80
2009,07,29,01,01,22.70
2009,07,29,01,02,22.70
2009,07,29,01,03,22.60
2009,07,29,01,04,22.60
2009,07,29,01,05,22.60
2009,07,29,01,06,22.50
2009,07,29,01,07,22.40
2009,07,29,01,08,22.30
2009,07,29,01,09,22.20
2009,07,29,01,10,22.10
2009,07,29,01,11,22.10
2009,07,29,01,12,22.00
2009,07,29,01,13,22.00
2009,07,29,01,14,22.00
2009,07,29,01,15,22.00
2009,07,29,01,16,22.00
2009,07,29,01,17,22.00
2009,07,29,01,18,22.00
2009,07,29,01,19,22.00
2009,07,29,01,20,22.10
2009,07,29,01,21,22.10
2009,07,29,01,22,22.10
2009,07,29,01,23,22.10
2009,07,29,01,24,22.20
2009,07,29,01,25,22.20
2009,07,29,01,26,22.20
2009,07,29,01,27,22.30
2009,07,29,01,28,22.30
2009,07,29,01,29,22.30
2009,07,29,01,30,22.30
2009,07,29,01,31,22.40
2009,07,29,01,32,22.40
2009,07,29,01,33,22.40
2009,07,29,01,34,22.50
2009,07,29,01,35,22.50
2009,07,29,01,36,22.60
2009,07,29,01,37,22.60
2009,07,29,01,38,22.60
2009,07,29,01,39,22.70
2009,07,29,01,40,22.70
2009,07,29,01,41,22.70
2009,07,29,01,42,22.70
2009,07,29,01,43,22.70
2009,07,29,01,44,22.70
2009,07,29,01,45,22.60
2009,07,29,01,46,22.60
2009,07,29,01,47,22.60
2009,07,29,01,48,22.60
2009,07,29,01,49,22.60
2009,07,29,01,50,22.50
2009,07,29,01,51,22.50
2009,07,29,01,52,22.50
2009,07,29,01,53,22.40
2009,07,29,01,54,22.30
2009,07,29,01,55,22.30
2009,07,29,01,56,22.20
2009,07,29,01,57,22.20
2009,07,29,01,58,22.10
2009,07,29,01,59,22.10
2009,07,29,02,00,22.00
2009,07,29,02,01,22.00
2009,07,29,02,02,21.90
2009,07,29,02,03,21.90
2009,07,29,02,04,21.90
2009,07,29,02,05,21.80
2009,07,29,02,06,21.80
2009,07,29,02,07,21.80
2009,07,29,02,08,21.80
2009,07,29,02,09,21.80
2009,07,29,02,10,21.80
2009,07,29,02,11,21.80
2009,07,29,02,12,21.90
2009,07,29,02,13,21.90
2009,07,29,02,14,21.80
2009,07,29,02,15,21.80
2009,07,29,02,16,21.70
2009,07,29,02,17,21.60
2009,07,29,02,18,21.60
2009,07,29,02,19,21.50
2009,07,29,02,20,21.40
2009,07,29,02,21,21.40
2009,07,29,02,22,21.30
2009,07,29,02,23,21.30
2009,07,29,02,24,21.30
2009,07,29,02,25,21.30
2009,07,29,02,26,21.30
2009,07,29,02,27,21.40
2009,07,29,02,28,21.50
2009,07,29,02,29,21.60
2009,07,29,02,30,21.60
2009,07,29,02,31,21.70
2009,07,29,02,32,21.70
2009,07,29,02,33,21.80
2009,07,29,02,34,21.90
2009,07,29,02,35,22.00
2009,07,29,02,36,22.00
2009,07,29,02,37,22.00
2009,07,29,02,38,22.10
2009,07,29,02,39,22.10
2009,07,29,02,40,22.20
2009,07,29,02,41,22.20
2009,07,29,02,42,22.30
2009,07,29,02,43,22.30
2009,07,29,02,44,22.30
2009,07,29,02,45,22.30
2009,07,29,02,46,22.40
2009,07,29,02,47,22.40
2009,07,29,02,48,22.40
2009,07,29,02,49,22.40
2009,07,29,02,50,22.40
2009,07,29,02,51,22.30
2009,07,29,02,52,22.30
2009,07,29,02,53,22.20
2009,07,29,02,54,22.20
2009,07,29,02,55,22.10
2009,07,29,02,56,22.00
2009,07,29,02,57,21.90
2009,07,29,02,58,21.90
2009,07,29,02,59,21.70
2009,07,29,03,00,21.60
2009,07,29,03,01,21.50
2009,07,29,03,02,21.30
2009,07,29,03,03,21.20
2009,07,29,03,04,21.20
2009,07,29,03,05,21.00
2009,07,29,03,06,20.90
2009,07,29,03,07,20.80
2009,07,29,03,08,20.70
2009,07,29,03,09,20.60
2009,07,29,03,10,20.50
2009,07,29,03,11,20.50
2009,07,29,03,12,20.40
2009,07,29,03,13,20.40
2009,07,29,03,14,20.40
2009,07,29,03,15,20.30
2009,07,29,03,16,20.30
2009,07,29,03,17,20.30
2009,07,29,03,18,20.20
2009,07,29,03,19,20.20
2009,07,29,03,20,20.20
2009,07,29,03,21,20.00
2009,07,29,03,22,19.90
2009,07,29,03,23,19.80
2009,07,29,03,24,19.70
2009,07,29,03,25,19.60
2009,07,29,03,26,19.60
2009,07,29,03,27,19.60
2009,07,29,03,28,19.60
2009,07,29,03,29,19.50
2009,07,29,03,30,19.50
2009,07,29,03,31,19.50
2009,07,29,03,32,19.40
2009,07,29,03,33,19.30
2009,07,29,03,34,19.30
2009,07,29,03,35,19.20
2009,07,29,03,36,19.10
2009,07,29,03,37,19.00
2009,07,29,03,38,18.90
2009,07,29,03,39,18.70
2009,07,29,03,40,18.60
2009,07,29,03,41,18.50
2009,07,29,03,42,18.40
2009,07,29,03,43,18.30
2009,07,29,03,44,18.20
2009,07,29,03,45,18.20
2009,07,29,03,46,18.10
2009,07,29,03,47,18.10
2009,07,29,03,48,18.10
2009,07,29,03,49,18.10
2009,07,29,03,50,18.10
2009,07,29,03,51,18.10
2009,07,29,03,52,18.10
2009,07,29,03,53,18.10
2009,07,29,03,54,18.10
2009,07,29,03,55,18.30
2009,07,29,03,56,18.40
2009,07,29,03,57,18.60
2009,07,29,03,58,18.80
2009,07,29,03,59,19.00
2009,07,29,04,00,19.30
2009,07,29,04,01,19.60
2009,07,29,04,02,19.80
2009,07,29,04,03,20.00
2009,07,29,04,04,20.10
2009,07,29,04,05,20.20
2009,07,29,04,06,20.20
2009,07,29,04,07,20.20
2009,07,29,04,08,20.20
2009,07,29,04,09,20.20
2009,07,29,04,10,20.10
2009,07,29,04,11,20.10
2009,07,29,04,12,19.90
2009,07,29,04,13,19.90
2009,07,29,04,14,19.80
2009,07,29,04,15,19.60
2009,07,29,04,16,19.60
2009,07,29,04,17,19.50
2009,07,29,04,18,19.40
2009,07,29,04,19,19.30
2009,07,29,04,20,19.10
2009,07,29,04,21,19.10
2009,07,29,04,22,18.90
2009,07,29,04,23,18.90
2009,07,29,04,24,18.80
2009,07,29,04,25,18.70
2009,07,29,04,26,18.70
2009,07,29,04,27,18.70
2009,07,29,04,28,18.70
2009,07,29,04,29,18.70
2009,07,29,04,30,18.80
2009,07,29,04,31,18.90
2009,07,29,04,32,19.00
2009,07,29,04,33,19.30
2009,07,29,04,34,19.40
2009,07,29,04,35,19.60
2009,07,29,04,36,19.70
2009,07,29,04,37,19.80
2009,07,29,04,38,19.90
2009,07,29,04,39,19.90
2009,07,29,04,40,20.00
2009,07,29,04,41,20.10
2009,07,29,04,42,20.20
2009,07,29,04,43,20.40
2009,07,29,04,44,20.50
2009,07,29,04,45,20.80
2009,07,29,04,46,21.00
2009,07,29,04,47,21.20
2009,07,29,04,48,21.50
2009,07,29,04,49,21.70
2009,07,29,04,50,22.00
2009,07,29,04,51,22.10
2009,07,29,04,52,22.20
2009,07,29,04,53,22.30
2009,07,29,04,54,22.40
2009,07,29,04,55,22.50
2009,07,29,04,56,22.50
2009,07,29,04,57,22.60
2009,07,29,04,58,22.60
2009,07,29,04,59,22.60
2009,07,29,05,00,22.60
2009,07,29,05,01,22.60
2009,07,29,05,02,22.60
2009,07,29,05,03,22.60
2009,07,29,05,04,22.60
2009,07,29,05,05,22.60
2009,07,29,05,06,22.60
2009,07,29,05,07,22.60
2009,07,29,05,08,22.60
2009,07,29,05,09,22.60
2009,07,29,05,10,22.60
2009,07,29,05,11,22.60
2009,07,29,05,12,22.50
2009,07,29,05,13,22.50
2009,07,29,05,14,22.50
2009,07,29,05,15,22.40
2009,07,29,05,16,22.30
2009,07,29,05,17,22.30
2009,07,29,05,18,22.20
2009,07,29,05,19,22.10
2009,07,29,05,20,22.00
2009,07,29,05,21,21.90
2009,07,29,05,22,21.80
2009,07,29,05,23,21.80
2009,07,29,05,24,21.70
2009,07,29,05,25,21.70
2009,07,29,05,26,21.60
2009,07,29,05,27,21.60
2009,07,29,05,28,21.70
2009,07,29,05,29,21.70
2009,07,29,05,30,21.70
2009,07,29,05,31,21.70
2009,07,29,05,32,21.70
2009,07,29,05,33,21.70
2009,07,29,05,34,21.70
2009,07,29,05,35,21.70
2009,07,29,05,36,21.70
2009,07,29,05,37,21.70
2009,07,29,05,38,21.80
2009,07,29,05,39,21.80
2009,07,29,05,40,21.80
2009,07,29,05,41,21.80
2009,07,29,05,42,21.80
2009,07,29,05,43,21.80
2009,07,29,05,44,21.80
2009,07,29,05,45,21.80
2009,07,29,05,46,21.80
2009,07,29,05,47,21.80
2009,07,29,05,48,21.90
2009,07,29,05,49,21.90
2009,07,29,05,50,21.90
2009,07,29,05,51,21.90
2009,07,29,05,52,21.90
2009,07,29,05,53,22.00
2009,07,29,05,54,22.00
2009,07,29,05,55,22.00
2009,07,29,05,56,22.10
2009,07,29,05,57,22.10
2009,07,29,05,58,22.20
2009,07,29,05,59,22.30
2009,07,29,06,00,22.30
2009,07,29,06,01,22.40
2009,07,29,06,02,22.40
2009,07,29,06,03,22.50
2009,07,29,06,04,22.50
2009,07,29,06,05,22.60
2009,07,29,06,06,22.60
2009,07,29,06,07,22.60
2009,07,29,06,08,22.60
2009,07,29,06,09,22.70
2009,07,29,06,10,22.60
2009,07,29,06,11,22.60
2009,07,29,06,12,22.60
2009,07,29,06,13,22.60
2009,07,29,06,14,22.50
2009,07,29,06,15,22.50
2009,07,29,06,16,22.40
2009,07,29,06,17,22.30
2009,07,29,06,18,22.30
2009,07,29,06,19,22.20
2009,07,29,06,20,22.10
2009,07,29,06,21,22.10
2009,07,29,06,22,22.00
2009,07,29,06,23,22.00
2009,07,29,06,24,22.00
2009,07,29,06,25,22.10
2009,07,29,06,26,22.10
2009,07,29,06,27,22.20
2009,07,29,06,28,22.20
2009,07,29,06,29,22.30
2009,07,29,06,30,22.30
2009,07,29,06,31,22.40
2009,07,29,06,32,22.40
2009,07,29,06,33,22.50
2009,07,29,06,34,22.50
2009,07,29,06,35,22.50
2009,07,29,06,36,22.60
2009,07,29,06,37,22.60
2009,07,29,06,38,22.60
2009,07,29,06,39,22.70
2009,07,29,06,40,22.70
2009,07,29,06,41,22.70
2009,07,29,06,42,22.80
2009,07,29,06,43,22.70
2009,07,29,06,44,22.60
2009,07,29,06,45,22.40
2009,07,29,06,46,22.20
2009,07,29,06,47,21.90
2009,07,29,06,48,21.60
2009,07,29,06,49,21.30
2009,07,29,06,50,21.00
2009,07,29,06,51,20.80
2009,07,29,06,52,20.60
2009,07,29,06,53,20.50
2009,07,29,06,54,20.30
2009,07,29,06,55,20.20
2009,07,29,06,56,20.20
2009,07,29,06,57,20.20
2009,07,29,06,58,20.10
2009,07,29,06,59,20.10
2009,07,29,07,00,20.10
2009,07,29,07,01,20.10
2009,07,29,07,02,20.10
2009,07,29,07,03,20.20
2009,07,29,07,04,20.20
2009,07,29,07,05,20.30
2009,07,29,07,06,20.40
2009,07,29,07,07,20.50
2009,07,29,07,08,20.60
2009,07,29,07,09,20.70
2009,07,29,07,10,20.80
2009,07,29,07,11,21.00
2009,07,29,07,12,21.10
2009,07,29,07,13,21.20
2009,07,29,07,14,21.30
2009,07,29,07,15,21.30
2009,07,29,07,16,21.40
2009,07,29,07,17,21.50
2009,07,29,07,18,21.60
2009,07,29,07,19,21.70
2009,07,29,07,20,21.70
2009,07,29,07,21,21.80
2009,07,29,07,22,21.90
2009,07,29,07,23,22.00
2009,07,29,07,24,22.00
2009,07,29,07,25,22.10
2009,07,29,07,26,22.10
2009,07,29,07,27,22.10
2009,07,29,07,28,22.10
2009,07,29,07,29,22.20
2009,07,29,07,30,22.20
2009,07,29,07,31,22.30
2009,07,29,07,32,22.30
2009,07,29,07,33,22.40
2009,07,29,07,34,22.50
2009,07,29,07,35,22.60
2009,07,29,07,36,22.70
2009,07,29,07,37,22.80
2009,07,29,07,38,22.90
2009,07,29,07,39,22.90
2009,07,29,07,40,22.90
2009,07,29,07,41,22.90
2009,07,29,07,42,22.90
2009,07,29,07,43,22.90
2009,07,29,07,44,22.90
2009,07,29,07,45,22.90
2009,07,29,07,46,22.90
2009,07,29,07,47,22.90
2009,07,29,07,48,22.90
2009,07,29,07,49,22.90
2009,07,29,07,50,22.80
2009,07,29,07,51,22.80
2009,07,29,07,52,22.80
2009,07,29,07,53,22.70
2009,07,29,07,54,22.70
2009,07,29,07,55,22.70
2009,07,29,07,56,22.60
2009,07,29,07,57,22.60
2009,07,29,07,58,22.60
2009,07,29,07,59,22.50
2009,07,29,08,00,22.40
2009,07,29,08,01,22.30
2009,07,29,08,02,22.30
2009,07,29,08,03,22.20
2009,07,29,08,04,22.10
2009,07,29,08,05,22.10
2009,07,29,08,06,22.00
2009,07,29,08,07,21.90
2009,07,29,08,08,21.80
2009,07,29,08,09,21.70
2009,07,29,08,10,21.70
2009,07,29,08,11,21.60
2009,07,29,08,12,21.60
2009,07,29,08,13,21.50
2009,07,29,08,14,21.40
2009,07,29,08,15,21.40
2009,07,29,08,16,21.40
2009,07,29,08,17,21.40
2009,07,29,08,18,21.40
2009,07,29,08,19,21.50
2009,07,29,08,20,21.60
2009,07,29,08,21,21.60
2009,07,29,08,22,21.60
2009,07,29,08,23,21.70
2009,07,29,08,24,21.80
2009,07,29,08,25,21.90
2009,07,29,08,26,22.00
2009,07,29,08,27,22.10
2009,07,29,08,28,22.20
2009,07,29,08,29,22.20
2009,07,29,08,30,22.30
2009,07,29,08,31,22.30
2009,07,29,08,32,22.40
2009,07,29,08,33,22.40
2009,07,29,08,34,22.50
2009,07,29,08,35,22.60
2009,07,29,08,36,22.60
2009,07,29,08,37,22.80
2009,07,29,08,38,22.80
2009,07,29,08,39,22.90
2009,07,29,08,40,23.00
2009,07,29,08,41,23.10
2009,07,29,08,42,23.20
2009,07,29,08,43,23.30
2009,07,29,08,44,23.30
2009,07,29,08,45,23.40
2009,07,29,08,46,23.50
2009,07,29,08,47,23.60
2009,07,29,08,48,23.70
2009,07,29,08,49,23.70
2009,07,29,08,50,23.80
2009,07,29,08,51,23.80
2009,07,29,08,52,23.90
2009,07,29,08,53,23.90
2009,07,29,08,54,23.90
2009,07,29,08,55,24.00
2009,07,29,08,56,24.10
2009,07,29,08,57,24.10
2009,07,29,08,58,24.10
2009,07,29,08,59,24.10
2009,07,29,09,00,24.10
2009,07,29,09,01,24.10
2009,07,29,09,02,24.10
2009,07,29,09,03,24.10
2009,07,29,09,04,24.10
2009,07,29,09,05,24.10
2009,07,29,09,06,24.10
2009,07,29,09,07,24.10
2009,07,29,09,08,24.10
2009,07,29,09,09,24.10
2009,07,29,09,10,24.10
2009,07,29,09,11,24.10
2009,07,29,09,12,24.10
2009,07,29,09,13,24.10
2009,07,29,09,14,24.10
2009,07,29,09,15,24.00
2009,07,29,09,16,23.90
2009,07,29,09,17,23.80
2009,07,29,09,18,23.70
2009,07,29,09,19,23.70
2009,07,29,09,20,23.70
2009,07,29,09,21,23.70
2009,07,29,09,22,23.80
2009,07,29,09,23,23.90
2009,07,29,09,24,23.90
2009,07,29,09,25,24.00
2009,07,29,09,26,24.10
2009,07,29,09,27,24.20
2009,07,29,09,28,24.30
2009,07,29,09,29,24.30
2009,07,29,09,30,24.30
2009,07,29,09,31,24.30
2009,07,29,09,32,24.30
2009,07,29,09,33,24.30
2009,07,29,09,34,24.30
2009,07,29,09,35,24.30
2009,07,29,09,36,24.30
2009,07,29,09,37,24.30
2009,07,29,09,38,24.30
2009,07,29,09,39,24.30
2009,07,29,09,40,24.30
2009,07,29,09,41,24.40
2009,07,29,09,42,24.40
2009,07,29,09,43,24.40
2009,07,29,09,44,24.40
2009,07,29,09,45,24.40
2009,07,29,09,46,24.40
2009,07,29,09,47,24.40
2009,07,29,09,48,24.40
2009,07,29,09,49,24.50
2009,07,29,09,50,24.50
2009,07,29,09,51,24.60
2009,07,29,09,52,24.60
2009,07,29,09,53,24.60
2009,07,29,09,54,24.70
2009,07,29,09,55,24.70
2009,07,29,09,56,24.60
2009,07,29,09,57,24.60
2009,07,29,09,58,24.60
2009,07,29,09,59,24.60
2009,07,29,10,00,24.50
2009,07,29,10,01,24.50
2009,07,29,10,02,24.50
2009,07,29,10,03,24.60
2009,07,29,10,04,24.60
2009,07,29,10,05,24.60
2009,07,29,10,06,24.60
2009,07,29,10,07,24.60
2009,07,29,10,08,24.60
2009,07,29,10,09,24.60
2009,07,29,10,10,24.60
2009,07,29,10,11,24.60
2009,07,29,10,12,24.70
2009,07,29,10,13,24.70
2009,07,29,10,14,24.80
2009,07,29,10,15,24.80
2009,07,29,10,16,24.80
2009,07,29,10,17,24.70
2009,07,29,10,18,24.70
2009,07,29,10,19,24.80
2009,07,29,10,20,24.80
2009,07,29,10,21,24.80
2009,07,29,10,22,24.90
2009,07,29,10,23,24.90
2009,07,29,10,24,25.00
2009,07,29,10,25,25.00
2009,07,29,10,26,25.10
2009,07,29,10,27,25.20
2009,07,29,10,28,25.20
2009,07,29,10,29,25.30
2009,07,29,10,30,25.40
2009,07,29,10,31,25.40
2009,07,29,10,32,25.50
2009,07,29,10,33,25.50
2009,07,29,10,34,25.60
2009,07,29,10,35,25.60
2009,07,29,10,36,25.60
2009,07,29,10,37,25.50
2009,07,29,10,38,25.50
2009,07,29,10,39,25.50
2009,07,29,10,40,25.50
2009,07,29,10,41,25.40
2009,07,29,10,42,25.40
2009,07,29,10,43,25.40
2009,07,29,10,44,25.40
2009,07,29,10,45,25.40
2009,07,29,10,46,25.50
2009,07,29,10,47,25.50
2009,07,29,10,48,25.60
2009,07,29,10,49,25.60
2009,07,29,10,50,25.70
2009,07,29,10,51,25.70
2009,07,29,10,52,25.80
2009,07,29,10,53,25.80
2009,07,29,10,54,25.80
2009,07,29,10,55,25.90
2009,07,29,10,56,25.90
2009,07,29,10,57,25.90
2009,07,29,10,58,26.00
2009,07,29,10,59,26.00
2009,07,29,11,00,26.00
2009,07,29,11,01,26.10
2009,07,29,11,02,26.20
2009,07,29,11,03,26.20
2009,07,29,11,04,26.20
2009,07,29,11,05,26.20
2009,07,29,11,06,26.30
2009,07,29,11,07,26.30
2009,07,29,11,08,26.30
2009,07,29,11,09,26.40
2009,07,29,11,10,26.40
2009,07,29,11,11,26.40
2009,07,29,11,12,26.40
2009,07,29,11,13,26.40
2009,07,29,11,14,26.40
2009,07,29,11,15,26.40
2009,07,29,11,16,26.40
2009,07,29,11,17,26.50
2009,07,29,11,18,26.60
2009,07,29,11,19,26.60
2009,07,29,11,20,26.70
2009,07,29,11,21,26.70
2009,07,29,11,22,26.70
2009,07,29,11,23,26.70
2009,07,29,11,24,26.70
2009,07,29,11,25,26.60
2009,07,29,11,26,26.60
2009,07,29,11,27,26.70
2009,07,29,11,28,26.70
2009,07,29,11,29,26.70
2009,07,29,11,30,26.70
2009,07,29,11,31,26.80
2009,07,29,11,32,26.80
2009,07,29,11,33,26.80
2009,07,29,11,34,26.80
2009,07,29,11,35,26.80
2009,07,29,11,36,26.70
2009,07,29,11,37,26.70
2009,07,29,11,38,26.70
2009,07,29,11,39,26.70
2009,07,29,11,40,26.70
2009,07,29,11,41,26.60
2009,07,29,11,42,26.60
2009,07,29,11,43,26.50
2009,07,29,11,44,26.40
2009,07,29,11,45,26.40
2009,07,29,11,46,26.30
2009,07,29,11,47,26.30
2009,07,29,11,48,26.30
2009,07,29,11,49,26.40
2009,07,29,11,50,26.40
2009,07,29,11,51,26.40
2009,07,29,11,52,26.40
2009,07,29,11,53,26.40
2009,07,29,11,54,26.40
2009,07,29,11,55,26.40
2009,07,29,11,56,26.40
2009,07,29,11,57,26.40
2009,07,29,11,58,26.40
2009,07,29,11,59,26.50
2009,07,29,12,00,26.60
2009,07,29,12,01,26.60
2009,07,29,12,02,26.60
2009,07,29,12,03,26.60
2009,07,29,12,04,26.60
2009,07,29,12,05,26.60
2009,07,29,12,06,26.60
2009,07,29,12,07,26.60
2009,07,29,12,08,26.60
2009,07,29,12,09,26.50
2009,07,29,12,10,26.40
2009,07,29,12,11,26.40
2009,07,29,12,12,26.40
2009,07,29,12,13,26.40
2009,07,29,12,14,26.40
2009,07,29,12,15,26.40
2009,07,29,12,16,26.50
2009,07,29,12,17,26.60
2009,07,29,12,18,26.70
2009,07,29,12,19,26.70
2009,07,29,12,20,26.70
2009,07,29,12,21,26.80
2009,07,29,12,22,26.90
2009,07,29,12,23,26.90
2009,07,29,12,24,27.10
2009,07,29,12,25,27.10
2009,07,29,12,26,27.10
2009,07,29,12,27,27.20
2009,07,29,12,28,27.30
2009,07,29,12,29,27.30
2009,07,29,12,30,27.30
2009,07,29,12,31,27.30
2009,07,29,12,32,27.30
2009,07,29,12,33,27.30
2009,07,29,12,34,27.30
2009,07,29,12,35,27.30
2009,07,29,12,36,27.40
2009,07,29,12,37,27.50
2009,07,29,12,38,27.60
2009,07,29,12,39,27.70
2009,07,29,12,40,27.70
2009,07,29,12,41,27.70
2009,07,29,12,42,27.70
2009,07,29,12,43,27.70
2009,07,29,12,44,27.70
2009,07,29,12,45,27.70
2009,07,29,12,46,27.80
2009,07,29,12,47,27.90
2009,07,29,12,48,28.00
2009,07,29,12,49,28.00
2009,07,29,12,50,28.10
2009,07,29,12,51,28.20
2009,07,29,12,52,28.30
2009,07,29,12,53,28.40
2009,07,29,12,54,28.40
2009,07,29,12,55,28.60
2009,07,29,12,56,28.60
2009,07,29,12,57,28.60
2009,07,29,12,58,28.60
2009,07,29,12,59,28.60
2009,07,29,13,00,28.60
2009,07,29,13,01,28.60
2009,07,29,13,02,28.70
2009,07,29,13,03,28.80
2009,07,29,13,04,28.90
2009,07,29,13,05,29.00
2009,07,29,13,06,29.10
2009,07,29,13,07,29.30
2009,07,29,13,08,29.50
2009,07,29,13,09,29.60
2009,07,29,13,10,29.80
2009,07,29,13,11,29.90
2009,07,29,13,12,30.00
2009,07,29,13,13,30.10
2009,07,29,13,14,30.10
2009,07,29,13,15,30.00
2009,07,29,13,16,29.90
2009,07,29,13,17,29.90
2009,07,29,13,18,29.90
2009,07,29,13,19,29.90
2009,07,29,13,20,29.80
2009,07,29,13,21,29.80
2009,07,29,13,22,29.80
2009,07,29,13,23,29.90
2009,07,29,13,24,30.00
2009,07,29,13,25,30.10
2009,07,29,13,26,30.20
2009,07,29,13,27,30.30
2009,07,29,13,28,30.20
2009,07,29,13,29,30.10
2009,07,29,13,30,30.00
2009,07,29,13,31,29.90
2009,07,29,13,32,29.80
2009,07,29,13,33,29.80
2009,07,29,13,34,29.80
2009,07,29,13,35,29.90
2009,07,29,13,36,30.10
2009,07,29,13,37,30.20
2009,07,29,13,38,30.30
2009,07,29,13,39,30.30
2009,07,29,13,40,30.30
2009,07,29,13,41,30.30
2009,07,29,13,42,30.30
2009,07,29,13,43,30.30
2009,07,29,13,44,30.30
2009,07,29,13,45,30.40
2009,07,29,13,46,30.40
2009,07,29,13,47,30.40
2009,07,29,13,48,30.50
2009,07,29,13,49,30.60
2009,07,29,13,50,30.70
2009,07,29,13,51,30.70
2009,07,29,13,52,30.80
2009,07,29,13,53,30.80
2009,07,29,13,54,30.80
2009,07,29,13,55,30.80
2009,07,29,13,56,30.80
2009,07,29,13,57,30.80
2009,07,29,13,58,30.90
2009,07,29,13,59,30.90
2009,07,29,14,00,30.90
2009,07,29,14,01,30.90
2009,07,29,14,02,30.90
2009,07,29,14,03,30.90
2009,07,29,14,04,30.90
2009,07,29,14,05,30.80
2009,07,29,14,06,30.80
2009,07,29,14,07,30.80
2009,07,29,14,08,30.80
2009,07,29,14,09,30.80
2009,07,29,14,10,30.90
2009,07,29,14,11,30.90
2009,07,29,14,12,30.80
2009,07,29,14,13,30.70
2009,07,29,14,14,30.70
2009,07,29,14,15,30.60
2009,07,29,14,16,30.60
2009,07,29,14,17,30.50
2009,07,29,14,18,30.40
2009,07,29,14,19,30.30
2009,07,29,14,20,30.30
2009,07,29,14,21,30.40
2009,07,29,14,22,30.40
2009,07,29,14,23,30.40
2009,07,29,14,24,30.40
2009,07,29,14,25,30.50
2009,07,29,14,26,30.60
2009,07,29,14,27,30.60
2009,07,29,14,28,30.70
2009,07,29,14,29,30.80
2009,07,29,14,30,30.90
2009,07,29,14,31,31.00
2009,07,29,14,32,31.20
2009,07,29,14,33,31.30
2009,07,29,14,34,31.40
2009,07,29,14,35,31.40
2009,07,29,14,36,31.40
2009,07,29,14,37,31.40
2009,07,29,14,38,31.30
2009,07,29,14,39,31.30
2009,07,29,14,40,31.30
2009,07,29,14,41,31.30
2009,07,29,14,42,31.20
2009,07,29,14,43,31.10
2009,07,29,14,44,31.10
2009,07,29,14,45,31.10
2009,07,29,14,46,31.00
2009,07,29,14,47,31.00
2009,07,29,14,48,31.00
2009,07,29,14,49,31.00
2009,07,29,14,50,31.00
2009,07,29,14,51,31.00
2009,07,29,14,52,31.00
2009,07,29,14,53,31.00
2009,07,29,14,54,31.00
2009,07,29,14,55,31.00
2009,07,29,14,56,31.00
2009,07,29,14,57,31.10
2009,07,29,14,58,31.10
2009,07,29,14,59,31.10
2009,07,29,15,00,31.10
2009,07,29,15,01,31.20
2009,07,29,15,02,31.20
2009,07,29,15,03,31.20
2009,07,29,15,04,31.20
2009,07,29,15,05,31.20
2009,07,29,15,06,31.10
2009,07,29,15,07,31.10
2009,07,29,15,08,31.10
2009,07,29,15,09,31.10
2009,07,29,15,10,31.10
2009,07,29,15,11,31.10
2009,07,29,15,12,31.20
2009,07,29,15,13,31.20
2009,07,29,15,14,31.30
2009,07,29,15,15,31.30
2009,07,29,15,16,31.30
2009,07,29,15,17,31.40
2009,07,29,15,18,31.40
2009,07,29,15,19,31.50
2009,07,29,15,20,31.60
2009,07,29,15,21,31.60
2009,07,29,15,22,31.70
2009,07,29,15,23,31.80
2009,07,29,15,24,31.90
2009,07,29,15,25,32.00
2009,07,29,15,26,32.10
2009,07,29,15,27,32.20
2009,07,29,15,28,32.20
2009,07,29,15,29,32.20
2009,07,29,15,30,32.30
2009,07,29,15,31,32.30
2009,07,29,15,32,32.30
2009,07,29,15,33,32.30
2009,07,29,15,34,32.30
2009,07,29,15,35,32.40
2009,07,29,15,36,32.40
2009,07,29,15,37,32.50
2009,07,29,15,38,32.50
2009,07,29,15,39,32.60
2009,07,29,15,40,32.60
2009,07,29,15,41,32.60
2009,07,29,15,42,32.60
2009,07,29,15,43,32.50
2009,07,29,15,44,32.50
2009,07,29,15,45,32.40
2009,07,29,15,46,32.40
2009,07,29,15,47,32.40
2009,07,29,15,48,32.30
2009,07,29,15,49,32.30
2009,07,29,15,50,32.30
2009,07,29,15,51,32.30
2009,07,29,15,52,32.40
2009,07,29,15,53,32.40
2009,07,29,15,54,32.40
2009,07,29,15,55,32.50
2009,07,29,15,56,32.50
2009,07,29,15,57,32.40
2009,07,29,15,58,32.40
2009,07,29,15,59,32.30
2009,07,29,16,00,32.30
2009,07,29,16,01,32.20
2009,07,29,16,02,32.10
2009,07,29,16,03,32.10
2009,07,29,16,04,32.10
2009,07,29,16,05,32.10
2009,07,29,16,06,32.10
2009,07,29,16,07,32.20
2009,07,29,16,08,32.20
2009,07,29,16,09,32.20
2009,07,29,16,10,32.20
2009,07,29,16,11,32.20
2009,07,29,16,12,32.20
2009,07,29,16,13,32.20
2009,07,29,16,14,32.20
2009,07,29,16,15,32.20
2009,07,29,16,16,32.30
2009,07,29,16,17,32.40
2009,07,29,16,18,32.40
2009,07,29,16,19,32.50
2009,07,29,16,20,32.60
2009,07,29,16,21,32.70
2009,07,29,16,22,32.80
2009,07,29,16,23,33.00
2009,07,29,16,24,33.10
2009,07,29,16,25,33.30
2009,07,29,16,26,33.40
2009,07,29,16,27,33.60
2009,07,29,16,28,33.70
2009,07,29,16,29,33.70
2009,07,29,16,30,33.80
2009,07,29,16,31,33.80
2009,07,29,16,32,33.80
2009,07,29,16,33,33.80
2009,07,29,16,34,33.80
2009,07,29,16,35,33.80
2009,07,29,16,36,33.80
2009,07,29,16,37,33.70
2009,07,29,16,38,33.70
2009,07,29,16,39,33.70
2009,07,29,16,40,33.60
2009,07,29,16,41,33.50
2009,07,29,16,42,33.30
2009,07,29,16,43,33.20
2009,07,29,16,44,33.10
2009,07,29,16,45,33.00
2009,07,29,16,46,33.00
2009,07,29,16,47,33.00
2009,07,29,16,48,33.00
2009,07,29,16,49,33.00
2009,07,29,16,50,33.00
2009,07,29,16,51,33.00
2009,07,29,16,52,33.00
2009,07,29,16,53,33.00
2009,07,29,16,54,33.10
2009,07,29,16,55,33.10
2009,07,29,16,56,33.20
2009,07,29,16,57,33.20
2009,07,29,16,58,33.20
2009,07,29,16,59,33.20
2009,07,29,17,00,33.20
2009,07,29,17,01,33.20
2009,07,29,17,02,33.10
2009,07,29,17,03,33.10
2009,07,29,17,04,33.10
2009,07,29,17,05,33.10
2009,07,29,17,06,33.00
2009,07,29,17,07,33.00
2009,07,29,17,08,33.00
2009,07,29,17,09,32.90
2009,07,29,17,10,32.90
2009,07,29,17,11,32.90
2009,07,29,17,12,32.90
2009,07,29,17,13,32.80
2009,07,29,17,14,32.80
2009,07,29,17,15,32.80
2009,07,29,17,16,32.80
2009,07,29,17,17,32.80
2009,07,29,17,18,32.80
2009,07,29,17,19,32.80